This is the latest recevied weather packets stored in our database for station/object GW4288. If no packets are shown the sender has not sent any weather packets the latest 1 day(s).
| Time | Temp. | Humidity | Pressure | Rain* | Wind** | Luminosity | Snow |
|---|---|---|---|---|---|---|---|
| 1778146866 | 18.89° C | 68% | 1012.2 hPa | 0 mm | - | 174 W/m² | - |
| 1778146738 | 19.44° C | 66% | 1012.2 hPa | 0 mm | - | 181 W/m² | - |
| 1778146617 | 19.44° C | 66% | 1012.4 hPa | 0 mm | - | 222 W/m² | - |
| 1778146499 | 19.44° C | 64% | 1012.2 hPa | 0 mm | - | 440 W/m² | - |
| 1778146378 | 19.44° C | 66% | 1012.3 hPa | 0 mm | - | 301 W/m² | - |
| 1778146267 | 19.44° C | 65% | 1012.2 hPa | 0 mm | - | 544 W/m² | - |
| 1778146136 | 18.89° C | 67% | 1012.1 hPa | 0 mm | - | 593 W/m² | - |
| 1778146017 | 18.89° C | 68% | 1012.2 hPa | 0 mm | - | 599 W/m² | - |
| 1778145899 | 18.89° C | 68% | 1012.1 hPa | 0 mm | - | 643 W/m² | - |
| 1778145777 | 18.89° C | 67% | 1012.3 hPa | 0 mm | - | 334 W/m² | - |
| 1778145667 | 19.44° C | 68% | 1012.1 hPa | 0 mm | - | 266 W/m² | - |
| 1778145537 | 18.33° C | 69% | 1012 hPa | 0 mm | - | 468 W/m² | - |
| 1778145417 | 18.33° C | 69% | 1012 hPa | 0 mm | - | 297 W/m² | - |
| 1778145299 | 18.33° C | 69% | 1012.2 hPa | 0 mm | - | 234 W/m² | - |
| 1778145176 | 17.78° C | 70% | 1012.1 hPa | 0 mm | - | 467 W/m² | - |
| 1778145058 | 17.78° C | 70% | 1012.3 hPa | 0 mm | - | 254 W/m² | - |
| 1778144937 | 17.78° C | 70% | 1012.2 hPa | 0 mm | - | 234 W/m² | - |
| 1778144817 | 18.33° C | 69% | 1012 hPa | 0 mm | - | 215 W/m² | - |
| 1778144698 | 18.89° C | 69% | 1012 hPa | 0 mm | - | 231 W/m² | - |
| 1778144576 | 18.89° C | 68% | 1012.3 hPa | 0 mm | - | 274 W/m² | - |
| 1778144472 | 18.89° C | 68% | 1011.9 hPa | 0 mm | - | 263 W/m² | - |
| 1778144336 | 18.33° C | 67% | 1012.1 hPa | 0 mm | - | 532 W/m² | - |
| 1778144216 | 18.33° C | 69% | 1012.3 hPa | 0 mm | - | 212 W/m² | - |
| 1778144097 | 17.78° C | 70% | 1012.2 hPa | 0 mm | - | 226 W/m² | - |
| 1778143976 | 17.78° C | 71% | 1012.1 hPa | 0 mm | - | 447 W/m² | - |
* Rain latest hour (hover to see other rain measurements)
** Current wind speed in m/s (hover to see current wind gust speed)